Weather History for Sidney, NE

Change the Weather History Date:

Tuesday, July 30, 2013

  Actual Average Record
Temperature  
Mean Temperature 74 °F 76 °F  
Max Temperature 91 °F 90 °F 105 °F (1980)
Min Temperature 57 °F 61 °F 37 °F (1971)
Degree Days  
Heating Degree Days 0 0  
Month to date heating degree days 8 0  
Since 1 June heating degree days 45 59  
Since 1 July heating degree days 8 0  
Cooling Degree Days 9 11  
Month to date cooling degree days 262 310  
Year to date cooling degree days 463 469  
Since 1 June cooling degree days 430 447  
Growing Degree Days 24 (Base 50)    
Moisture  
Dew Point 55 °F    
Average Humidity 60    
Maximum Humidity 97    
Minimum Humidity 22    
Precipitation  
Precipitation T in 0.09 in 1.38 in (1985)
Month to date precipitation 1.45 2.87  
Year to date precipitation 7.48 12.81  
Sea Level Pressure  
Sea Level Pressure 30.03 in    
Wind  
Wind Speed 6 mph (WSW)    
Max Wind Speed 18 mph    
Max Gust Speed 23 mph    
Visibility 10 miles    
Events Rain    
T = Trace of Precipitation, MM = Missing Value Source: NWS Daily Summary

Daily Weather History Graph

Daily Weather History Graph

Search for Another Location

Airport:

Trip Planner

Search our weather history database for the weather conditions in past years. The results will help you decide how hot, cold, wet, or windy it might be!

Date:

Astronomy

Jul. 30, 2013 Rise Set
Actual Time 5:46 AM MDT 8:10 PM MDT
Civil Twilight 5:14 AM MDT 8:41 PM MDT
Nautical Twilight 4:36 AM MDT 9:19 PM MDT
Astronomical Twilight 3:53 AM MDT 10:02 PM MDT
Moon 12:05 AM MDT (7/30) 2:32 PM MDT (7/30)
Length of Visible Light 15h 26m
Length of Day
14h 24m
Last Quarter, 40% of the Moon is Illuminated
Jul 30
Last Quarter
Aug 6
New
Aug 14
First Quarter
Aug 20
Full
Aug 28
Last Quarter

Hourly Weather History & Observations

Time (MDT) Temp. Heat Index Dew Point Humidity Pressure Visibility Wind Dir Wind Speed Gust Speed Precip Events Conditions
12:53 AM 64.9 °F - 62.1 °F 90% 30.02 in 10.0 mi WSW 6.9 mph - N/A   Clear
1:53 AM 64.9 °F - 62.1 °F 90% 30.02 in 10.0 mi South 3.5 mph - N/A   Clear
2:53 AM 62.1 °F - 60.1 °F 93% 30.04 in 8.0 mi SSE 3.5 mph - N/A   Clear
3:53 AM 62.1 °F - 60.1 °F 93% 30.05 in 6.0 mi Calm Calm - N/A   Clear
4:53 AM 60.1 °F - 57.9 °F 93% 30.06 in 9.0 mi West 4.6 mph - N/A   Clear
5:53 AM 57.9 °F - 55.9 °F 93% 30.08 in 7.0 mi Calm Calm - N/A   Clear
6:53 AM 61.0 °F - 59.0 °F 93% 30.08 in 7.0 mi Calm Calm - N/A   Clear
7:53 AM 69.1 °F - 59.0 °F 70% 30.06 in 10.0 mi WSW 8.1 mph - N/A   Clear
8:53 AM 73.9 °F - 57.9 °F 57% 30.06 in 10.0 mi Variable 5.8 mph - N/A   Clear
9:53 AM 79.0 °F - 55.9 °F 45% 30.06 in 10.0 mi South 6.9 mph - N/A   Clear
10:53 AM 82.9 °F 82.0 °F 55.0 °F 38% 30.04 in 10.0 mi Variable 6.9 mph - N/A   Clear
11:53 AM 86.0 °F 84.0 °F 53.1 °F 32% 30.04 in 10.0 mi SSW 9.2 mph - N/A   Clear
12:53 PM 86.0 °F - 52.0 °F 31% 30.02 in 10.0 mi NNW 10.4 mph - N/A   Mostly Cloudy
1:53 PM 89.1 °F - 50.0 °F 26% 30.01 in 10.0 mi NNW 11.5 mph - N/A   Scattered Clouds
2:53 PM 90.0 °F - 48.9 °F 24% 30.01 in 10.0 mi NNW 8.1 mph 17.3 mph N/A   Clear
3:53 PM 89.1 °F - 50.0 °F 26% 29.99 in 10.0 mi North 3.5 mph - N/A   Clear
4:53 PM 90.0 °F - 48.9 °F 24% 29.98 in 10.0 mi Variable 5.8 mph - N/A   Clear
5:53 PM 89.1 °F - 48.0 °F 24% 29.96 in 10.0 mi Calm Calm - N/A   Clear
6:53 PM 87.1 °F - 44.1 °F 22% 29.98 in 10.0 mi Calm Calm - N/A   Clear
7:53 PM 78.1 °F - 53.1 °F 42% 29.99 in 10.0 mi SSE 5.8 mph - N/A   Partly Cloudy
8:53 PM 75.9 °F - 53.1 °F 45% 30.00 in 10.0 mi South 5.8 mph - N/A   Scattered Clouds
9:53 PM 71.1 °F - 55.9 °F 59% 30.07 in 10.0 mi North 12.7 mph - 0.00 in Rain Light Rain
10:53 PM 69.1 °F - 54.0 °F 58% 30.04 in 10.0 mi ENE 6.9 mph - 0.00 in   Clear
11:53 PM 66.0 °F - 55.0 °F 68% 30.06 in 10.0 mi NNE 6.9 mph - N/A   Clear